Victoria, British Columbia

5:56 PM PST on February 06, 2016 (GMT -0800)
Victoria International

Weather History for CYYJ - December, 2012

Change the Weather History Date:

Monday, December 10, 2012

  Actual Average Record
Temperature  
Mean Temperature 38 °F -  
Max Temperature 44 °F 44 °F - ()
Min Temperature 32 °F 33 °F - ()
Degree Days  
Heating Degree Days 27    
Moisture  
Dew Point 38 °F    
Average Humidity 97    
Maximum Humidity 100    
Minimum Humidity 87    
Precipitation  
Precipitation 0.00 in 0.19 in - ()
Sea Level Pressure  
Sea Level Pressure 30.32 in    
Wind  
Wind Speed 2 mph ()    
Max Wind Speed 10 mph    
Max Gust Speed -    
Visibility 12.2 miles    
Events      
T = Trace of Precipitation, MM = Missing Value Source: Averaged Metar Reports

Daily Weather History Graph

Daily Weather History Graph

Search for Another Location

Airport or City:

Trip Planner

Search our weather history database for the weather conditions in past years. The results will help you decide how hot, cold, wet, or windy it might be!

Date:

Astronomy

Dec. 10, 2012 Rise Set
Actual Time 7:55 AM PST 4:17 PM PST
Civil Twilight 7:19 AM PST 4:54 PM PST
Nautical Twilight 6:38 AM PST 5:34 PM PST
Astronomical Twilight 6:00 AM PST 6:12 PM PST
Moon 4:36 AM PST (12/10) 2:18 PM PST (12/10)
Length of Visible Light 9h 35m
Length of Day
8h 21m
Waning Crescent, 9% of the Moon is Illuminated
Dec 10
Waning Crescent
Dec 13
New
Dec 19
First Quarter
Dec 28
Full
Jan 4
Last Quarter

Hourly Weather History & Observations

Time (PST) Temp. Windchill Dew Point Humidity Pressure Visibility Wind Dir Wind Speed Gust Speed Precip Events Conditions
12:00 AM 33.8 °F - 33.8 °F 100% 30.39 in 5.0 mi SSW 2.3 mph - N/A   Mostly Cloudy
1:00 AM 37.4 °F - 35.6 °F 93% 30.41 in 5.0 mi SW 2.3 mph - N/A   Mostly Cloudy
1:18 AM 35.6 °F 32.8 °F - N/A% - 5.0 mi SW 3.5 mph - N/A   Mostly Cloudy
2:00 AM 37.4 °F 34.9 °F 37.4 °F 100% 30.41 in 8.0 mi SW 3.5 mph - N/A   Mostly Cloudy
3:00 AM 37.4 °F - 37.4 °F 100% 30.42 in 5.0 mi Calm Calm - N/A   Mostly Cloudy
4:00 AM 36 °F - 36 °F 100% 30.41 in 7 mi West 2.3 mph - -   Scattered Clouds
4:00 AM 35.6 °F - 35.6 °F 100% 30.41 in 8.0 mi Calm Calm - N/A   Partly Cloudy
4:42 AM 37.4 °F 33.8 °F - N/A% - 8.0 mi NE 4.6 mph - N/A   Mostly Cloudy
5:00 AM 35.6 °F 31.7 °F 35.6 °F 100% 30.41 in 8.0 mi NNW 4.6 mph - N/A   Mostly Cloudy
6:00 AM 37.4 °F - 37.4 °F 100% 30.42 in 5.0 mi Calm Calm - N/A   Overcast
7:00 AM 37.4 °F - 37.4 °F 100% 30.41 in 5.0 mi Calm Calm - N/A   Overcast
7:47 AM 39.2 °F 37.0 °F - N/A% - 12.0 mi SW 3.5 mph - N/A   Mostly Cloudy
8:00 AM 39.2 °F 35.9 °F 39.2 °F 100% 30.40 in 12.0 mi SW 4.6 mph - N/A   Mostly Cloudy
9:00 AM 37.4 °F - 37.4 °F 100% 30.40 in 20.0 mi SW 2.3 mph - N/A   Mostly Cloudy
10:00 AM 40 °F - 39 °F 97% 30.40 in 19 mi North 5.8 mph - -   Overcast
10:00 AM 39.2 °F 35.0 °F 39.2 °F 100% 30.40 in 20.0 mi North 5.8 mph - N/A   Overcast
11:00 AM 41.0 °F - 39.2 °F 93% 30.38 in 20.0 mi Calm Calm - N/A   Overcast
12:00 PM 42.8 °F - 39.2 °F 87% 30.36 in 20.0 mi Calm Calm - N/A   Overcast
1:00 PM 42.8 °F - 41.0 °F 93% 30.34 in 20.0 mi West 2.3 mph - N/A   Overcast
2:00 PM 44.6 °F - 41.0 °F 87% 30.32 in 20.0 mi West 2.3 mph - N/A   Mostly Cloudy
3:00 PM 44.6 °F 43.1 °F 41.0 °F 87% 30.32 in 20.0 mi West 3.5 mph - N/A   Mostly Cloudy
4:00 PM 42 °F - 42 °F 98% 30.30 in 19 mi Calm Calm - -   Overcast
4:00 PM 42.8 °F - 41.0 °F 93% 30.30 in 20.0 mi Calm Calm - N/A   Overcast
5:00 PM 41.0 °F - 41.0 °F 100% 30.27 in 20.0 mi Calm Calm - N/A   Overcast
6:00 PM 39.2 °F - 39.2 °F 100% 30.25 in 20.0 mi Calm Calm - N/A   Overcast
7:00 PM 37.4 °F - 37.4 °F 100% 30.22 in 12.0 mi WSW 2.3 mph - N/A   Mostly Cloudy
7:24 PM 37.4 °F - - N/A% - 12.0 mi West 2.3 mph - N/A   Scattered Clouds
8:00 PM 37.4 °F - 37.4 °F 100% 30.19 in 12.0 mi Calm Calm - N/A   Partly Cloudy
8:15 PM 35.6 °F - - N/A% - 12.0 mi Calm Calm - N/A   Partly Cloudy
9:00 PM 35.6 °F - 35.6 °F 100% 30.17 in 12.0 mi NW 2.3 mph - N/A   Mostly Cloudy
9:06 PM 35.6 °F - - N/A% - 2.0 mi West 2.3 mph - N/A   Mostly Cloudy
9:18 PM 35.6 °F - - N/A% - 0.6 mi SSW 2.3 mph - N/A   Mostly Cloudy
9:41 PM 35.6 °F - - N/A% - 8.0 mi WNW 2.3 mph - N/A   Mostly Cloudy
10:00 PM 37 °F - 37 °F 98% 30.13 in 12 mi Calm Calm - -   Scattered Clouds
10:00 PM 37.4 °F - 37.4 °F 100% 30.13 in 12.0 mi Calm Calm - N/A   Mostly Cloudy
11:00 PM 42.8 °F 37.0 °F 41.0 °F 93% 30.09 in 12.0 mi SSE 10.4 mph - N/A   Overcast